^^
Saratoga-Weather Station Historical Data
Daily Summary for June 30, 2021 Units:  Metric    English   Both
Daily Weekly Monthly Yearly Custom
  High: Low: Average:
Temperature: 7.7 °C 6.3 °C 6.9 °C
Dew Point: 6.6 °C 4.9 °C 6 °C
Humidity: 97% 90% 94%
Wind Speed: 11.1km/h 0km/h 2.1km/h
Wind Gust: 17.7km/h - -
Wind- - South
Pressure: 1003.0 hPa 993.9 hPa -
Precipitation: 10.9 mm    
Historical Graphs
 
 
Tabular Data for June 30, 2021
Time Temperature Dew Point Pressure Wind Wind Speed Wind Gust Humidity Rainfall Rate (Hourly) solar
00:02 7.4 °C 6.2 °C 1003.0 hPa West 1.4 km/h 8 km/h 92% 0.0 mm 0 W/m2
00:07 7.4 °C 6.2 °C 1003.0 hPa West 6.4 km/h 11.3 km/h 92% 0.0 mm 0 W/m2
00:12 7.4 °C 6.2 °C 1003.0 hPa SW 6.4 km/h 8 km/h 92% 0.0 mm 0 W/m2
00:17 7.3 °C 6.1 °C 1003.0 hPa WNW 3.2 km/h 11.3 km/h 92% 0.0 mm 0 W/m2
00:22 7.4 °C 6.2 °C 1003.0 hPa WNW 3.2 km/h 14.5 km/h 92% 0.0 mm 0 W/m2
00:27 7.4 °C 6.2 °C 1003.0 hPa WSW 4.7 km/h 6.4 km/h 92% 0.0 mm 0 W/m2
00:32 7.4 °C 6.2 °C 1003.0 hPa Calm   11.3 km/h 92% 0.0 mm 0 W/m2
00:37 7.4 °C 6.2 °C 1003.0 hPa NW 4.7 km/h 9.7 km/h 92% 0.0 mm 0 W/m2
00:42 7.4 °C 6.2 °C 1003.0 hPa SSE 4.7 km/h 9.7 km/h 92% 0.0 mm 0 W/m2
00:47 7.4 °C 6.2 °C 1003.0 hPa WSW 3.2 km/h 6.4 km/h 92% 0.0 mm 0 W/m2
00:52 7.4 °C 6.2 °C 1003.0 hPa WNW 6.4 km/h 8 km/h 92% 0.0 mm 0 W/m2
00:57 7.5 °C 6.3 °C 1003.0 hPa West 9.7 km/h 12.9 km/h 92% 0.0 mm 0 W/m2
01:02 7.5 °C 6.3 °C 1003.0 hPa West 9.7 km/h 9.7 km/h 92% 0.0 mm 0 W/m2
01:07 7.5 °C 6.3 °C 1003.0 hPa WSW 1.4 km/h 9.7 km/h 92% 0.0 mm 0 W/m2
01:12 7.5 °C 6.3 °C 1003.0 hPa WSW 4.7 km/h 4.8 km/h 92% 0.0 mm 0 W/m2
01:17 7.4 °C 6.2 °C 1003.0 hPa WNW 4.7 km/h 6.4 km/h 92% 0.0 mm 0 W/m2
01:22 7.4 °C 6.2 °C 1003.0 hPa NW 4.7 km/h 4.8 km/h 92% 0.0 mm 0 W/m2
01:27 7.5 °C 6.3 °C 1003.0 hPa West 11.1 km/h 17.7 km/h 92% 0.0 mm 0 W/m2
01:32 7.6 °C 6.4 °C 1002.7 hPa West 9.7 km/h 12.9 km/h 92% 0.0 mm 0 W/m2
01:37 7.6 °C 6.4 °C 1002.7 hPa WSW 3.2 km/h 11.3 km/h 92% 0.0 mm 0 W/m2
01:42 7.6 °C 6.4 °C 1002.7 hPa West 4.7 km/h 12.9 km/h 92% 0.0 mm 0 W/m2
01:47 7.6 °C 6.4 °C 1002.7 hPa WNW 4.7 km/h 11.3 km/h 92% 0.0 mm 0 W/m2
01:52 7.7 °C 6.5 °C 1002.7 hPa NNW 7.9 km/h 12.9 km/h 92% 0.0 mm 0 W/m2
01:57 7.6 °C 6.2 °C 1002.7 hPa WNW 3.2 km/h 8 km/h 91% 0.0 mm 0 W/m2
02:02 7.6 °C 6.2 °C 1002.7 hPa WSW 3.2 km/h 8 km/h 91% 0.0 mm 0 W/m2
02:07 7.6 °C 6.2 °C 1002.7 hPa West 3.2 km/h 8 km/h 91% 0.0 mm 0 W/m2
02:12 7.6 °C 6.2 °C 1002.4 hPa WSW 6.4 km/h 6.4 km/h 91% 0.0 mm 0 W/m2
02:17 7.6 °C 6.2 °C 1002.4 hPa WNW 4.7 km/h 6.4 km/h 91% 0.0 mm 0 W/m2
02:22 7.6 °C 6.4 °C 1002.4 hPa WNW 1.4 km/h 12.9 km/h 92% 0.0 mm 0 W/m2
02:27 7.5 °C 6.3 °C 1002.4 hPa NW 3.2 km/h 14.5 km/h 92% 0.0 mm 0 W/m2
02:32 7.4 °C 6.2 °C 1002.4 hPa WNW 3.2 km/h 8 km/h 92% 0.0 mm 0 W/m2
02:37 7.4 °C 6.2 °C 1002.7 hPa WNW 4.7 km/h 14.5 km/h 92% 0.0 mm 0 W/m2
02:42 7.4 °C 6.2 °C 1002.4 hPa WNW 1.4 km/h 4.8 km/h 92% 0.0 mm 0 W/m2
02:47 7.4 °C 6.2 °C 1002.4 hPa WNW 4.7 km/h 11.3 km/h 92% 0.0 mm 0 W/m2
02:52 7.3 °C 6.1 °C 1002.4 hPa Calm   8 km/h 92% 0.0 mm 0 W/m2
02:57 7.4 °C 6.2 °C 1002.4 hPa NW 1.4 km/h 8 km/h 92% 0.0 mm 0 W/m2
03:02 7.3 °C 6.1 °C 1002.4 hPa WNW 3.2 km/h 9.7 km/h 92% 0.0 mm 0 W/m2
03:07 7.3 °C 6.1 °C 1002.7 hPa Calm   4.8 km/h 92% 0.0 mm 0 W/m2
03:12 7.3 °C 6.1 °C 1002.7 hPa West 1.4 km/h 11.3 km/h 92% 0.0 mm 0 W/m2
03:17 7.3 °C 6.1 °C 1002.7 hPa NW 3.2 km/h 11.3 km/h 92% 0.0 mm 0 W/m2
03:22 7.3 °C 6.1 °C 1002.7 hPa NW 3.2 km/h 3.2 km/h 92% 0.0 mm 0 W/m2
03:27 7.3 °C 6.1 °C 1002.7 hPa SSW 3.2 km/h 11.3 km/h 92% 0.0 mm 0 W/m2
03:32 7.2 °C 6 °C 1002.4 hPa WNW 1.4 km/h 4.8 km/h 92% 0.0 mm 0 W/m2
03:37 7.2 °C 5.8 °C 1002.4 hPa West 1.4 km/h 3.2 km/h 91% 0.0 mm 0 W/m2
03:42 7.1 °C 5.7 °C 1002.4 hPa WNW 4.7 km/h 8 km/h 91% 0.0 mm 0 W/m2
03:47 7.1 °C 5.7 °C 1002.4 hPa Calm   3.2 km/h 91% 0.0 mm 0 W/m2
03:52 7 °C 5.6 °C 1002.4 hPa NNE 1.4 km/h 8 km/h 91% 0.0 mm 0 W/m2
03:57 6.9 °C 5.5 °C 1002.4 hPa WNW 1.4 km/h 4.8 km/h 91% 0.0 mm 0 W/m2
04:02 6.9 °C 5.5 °C 1002.0 hPa Calm   1.6 km/h 91% 0.0 mm 0 W/m2
04:07 6.9 °C 5.4 °C 1002.0 hPa Calm   6.4 km/h 90% 0.0 mm 0 W/m2
04:12 6.8 °C 5.4 °C 1002.0 hPa SW 4.7 km/h 9.7 km/h 91% 0.0 mm 0 W/m2
04:17 6.7 °C 5.3 °C 1002.0 hPa South 3.2 km/h 3.2 km/h 91% 0.0 mm 0 W/m2
04:22 6.7 °C 5.3 °C 1002.0 hPa East 3.2 km/h 4.8 km/h 91% 0.0 mm 0 W/m2
04:27 6.6 °C 5.2 °C 1002.0 hPa WSW 4.7 km/h 4.8 km/h 91% 0.0 mm 0 W/m2
04:32 6.5 °C 5.1 °C 1001.7 hPa ESE 4.7 km/h 6.4 km/h 91% 0.0 mm 0 W/m2
04:37 6.5 °C 5.1 °C 1002.0 hPa WNW 4.7 km/h 4.8 km/h 91% 0.0 mm 0 W/m2
04:42 6.4 °C 5 °C 1002.0 hPa SSE 1.4 km/h 6.4 km/h 91% 0.0 mm 0 W/m2
04:47 6.4 °C 5 °C 1002.0 hPa WNW 3.2 km/h 6.4 km/h 91% 0.0 mm 0 W/m2
04:52 6.4 °C 5 °C 1002.0 hPa WNW 1.4 km/h 4.8 km/h 91% 0.0 mm 0 W/m2
04:57 6.4 °C 5 °C 1002.0 hPa NW 4.7 km/h 8 km/h 91% 0.0 mm 0 W/m2
05:02 6.3 °C 4.9 °C 1002.0 hPa WNW 3.2 km/h 11.3 km/h 91% 0.0 mm 0 W/m2
05:07 6.3 °C 4.9 °C 1001.7 hPa West 3.2 km/h 4.8 km/h 91% 0.0 mm 0 W/m2
05:12 6.4 °C 5 °C 1001.7 hPa WSW 3.2 km/h 12.9 km/h 91% 0.0 mm 0 W/m2
05:17 6.3 °C 4.9 °C 1001.7 hPa NNW 6.4 km/h 8 km/h 91% 0.0 mm 0 W/m2
05:22 6.4 °C 5 °C 1001.7 hPa South 1.4 km/h 16.1 km/h 91% 0.0 mm 0 W/m2
05:27 6.4 °C 5 °C 1001.7 hPa Calm   1.6 km/h 91% 0.0 mm 0 W/m2
05:32 6.4 °C 5.2 °C 1001.7 hPa East 3.2 km/h 6.4 km/h 92% 0.0 mm 0 W/m2
05:37 6.5 °C 5.3 °C 1001.7 hPa NW 3.2 km/h 6.4 km/h 92% 0.0 mm 0 W/m2
05:42 6.6 °C 5.4 °C 1001.7 hPa West 1.4 km/h 12.9 km/h 92% 0.0 mm 0 W/m2
05:47 6.7 °C 5.5 °C 1001.4 hPa WNW 1.4 km/h 6.4 km/h 92% 0.0 mm 0 W/m2
05:52 6.7 °C 5.5 °C 1001.4 hPa WNW 3.2 km/h 12.9 km/h 92% 0.0 mm 0 W/m2
05:57 6.7 °C 5.6 °C 1001.4 hPa Calm   1.6 km/h 93% 0.0 mm 0 W/m2
06:02 6.8 °C 5.7 °C 1001.4 hPa Calm   4.8 km/h 93% 0.0 mm 0 W/m2
06:08 6.8 °C 5.7 °C 1001.0 hPa SE 4.7 km/h 14.5 km/h 93% 0.0 mm 0 W/m2
06:13 6.8 °C 5.7 °C 1001.0 hPa SSW 1.4 km/h 4.8 km/h 93% 0.0 mm 0 W/m2
06:18 6.8 °C 5.7 °C 1000.7 hPa West 3.2 km/h 14.5 km/h 93% 0.0 mm 0 W/m2
06:23 6.9 °C 5.8 °C 1000.7 hPa NNW 1.4 km/h 4.8 km/h 93% 0.0 mm 0 W/m2
06:28 6.9 °C 5.8 °C 1000.7 hPa WNW 1.4 km/h 3.2 km/h 93% 0.0 mm 0 W/m2
06:33 6.9 °C 5.8 °C 1000.7 hPa North 1.4 km/h 3.2 km/h 93% 0.0 mm 0 W/m2
06:38 6.9 °C 5.8 °C 1000.3 hPa NNW 1.4 km/h 8 km/h 93% 0.0 mm 0 W/m2
06:43 7 °C 5.9 °C 1000.3 hPa Calm   3.2 km/h 93% 0.0 mm 0 W/m2
06:48 7 °C 5.9 °C 1000.3 hPa Calm   8 km/h 93% 0.0 mm 0 W/m2
06:53 7 °C 5.9 °C 1000.3 hPa WSW 3.2 km/h 3.2 km/h 93% 0.0 mm 0 W/m2
06:58 7 °C 5.9 °C 1000.3 hPa ENE 3.2 km/h 4.8 km/h 93% 0.0 mm 0 W/m2
07:03 7 °C 5.9 °C 1000.0 hPa Calm   3.2 km/h 93% 0.0 mm 0 W/m2
07:08 7 °C 5.9 °C 1000.0 hPa Calm     93% 0.0 mm 0 W/m2
07:13 7 °C 5.9 °C 1000.0 hPa NNW 1.4 km/h 4.8 km/h 93% 0.0 mm 0 W/m2
07:18 7.1 °C 6 °C 1000.0 hPa WNW 1.4 km/h 3.2 km/h 93% 0.0 mm 0 W/m2
07:23 7.1 °C 6 °C 1000.0 hPa Calm     93% 0.0 mm 0 W/m2
07:28 7.1 °C 6 °C 1000.0 hPa Calm   3.2 km/h 93% 0.0 mm 0 W/m2
07:33 7.1 °C 6 °C 1000.0 hPa NW 1.4 km/h 4.8 km/h 93% 0.0 mm 0 W/m2
07:38 7.1 °C 6 °C 1000.0 hPa Calm   3.2 km/h 93% 0.0 mm 0 W/m2
07:43 7.1 °C 6 °C 1000.0 hPa Calm   4.8 km/h 93% 0.0 mm 0 W/m2
07:48 7 °C 5.9 °C 1000.0 hPa SSW 4.7 km/h 4.8 km/h 93% 0.0 mm 0 W/m2
07:53 7 °C 5.9 °C 1000.0 hPa Calm   1.6 km/h 93% 0.0 mm 0 W/m2
07:58 7 °C 5.9 °C 999.7 hPa West 1.4 km/h 3.2 km/h 93% 0.0 mm 0 W/m2
08:03 7.1 °C 6.2 °C 1000.0 hPa WNW 1.4 km/h 4.8 km/h 94% 0.0 mm 0 W/m2
08:08 7.1 °C 6.2 °C 1000.0 hPa Calm   3.2 km/h 94% 0.0 mm 0 W/m2
08:13 7.1 °C 6.2 °C 1000.0 hPa Calm   3.2 km/h 94% 0.0 mm 0 W/m2
08:18 7.2 °C 6.1 °C 999.7 hPa Calm     93% 0.0 mm 0 W/m2
08:23 7.2 °C 6.1 °C 999.7 hPa Calm     93% 0.0 mm 0 W/m2
08:28 7.1 °C 6 °C 1000.0 hPa Calm     93% 0.0 mm 0 W/m2
08:33 7.1 °C 6.2 °C 999.7 hPa Calm   1.6 km/h 94% 0.0 mm 0 W/m2
08:38 7 °C 6.1 °C 999.7 hPa Calm   1.6 km/h 94% 0.0 mm 0 W/m2
08:43 6.9 °C 6 °C 999.7 hPa ENE 1.4 km/h 3.2 km/h 94% 0.0 mm 7 W/m2
08:48 6.9 °C 6 °C 999.7 hPa Calm     94% 0.2 mm 7 W/m2
08:53 6.9 °C 6 °C 999.7 hPa Calm     94% 0.2 mm 9 W/m2
08:58 6.8 °C 5.9 °C 999.7 hPa Calm     94% 0.5 mm 11 W/m2
09:03 6.8 °C 5.9 °C 999.7 hPa Calm     94% 0.5 mm 12 W/m2
09:08 6.8 °C 6.1 °C 999.3 hPa Calm     95% 0.5 mm 14 W/m2
09:13 6.8 °C 6.1 °C 999.3 hPa ENE 1.4 km/h 3.2 km/h 95% 0.5 mm 14 W/m2
09:18 6.8 °C 6.1 °C 999.0 hPa Calm   1.6 km/h 95% 0.5 mm 18 W/m2
09:23 6.7 °C 6 °C 999.0 hPa Calm     95% 0.8 mm 18 W/m2
09:28 6.7 °C 6 °C 999.0 hPa Calm   3.2 km/h 95% 0.8 mm 23 W/m2
09:33 6.7 °C 6 °C 998.6 hPa Calm   1.6 km/h 95% 1.0 mm 26 W/m2
09:38 6.7 °C 6 °C 998.6 hPa East 1.4 km/h 3.2 km/h 95% 1.0 mm 23 W/m2
09:43 6.7 °C 6 °C 998.6 hPa East 1.4 km/h 1.6 km/h 95% 1.3 mm 19 W/m2
09:48 6.6 °C 5.9 °C 998.6 hPa East 1.4 km/h 3.2 km/h 95% 1.3 mm 18 W/m2
09:53 6.6 °C 5.9 °C 998.6 hPa East 1.4 km/h 3.2 km/h 95% 1.5 mm 23 W/m2
09:58 6.6 °C 5.9 °C 998.6 hPa Calm   1.6 km/h 95% 1.3 mm 26 W/m2
10:03 6.6 °C 6 °C 998.6 hPa Calm   1.6 km/h 96% 1.5 mm 30 W/m2
10:08 6.6 °C 6 °C 998.6 hPa Calm     96% 1.3 mm 30 W/m2
10:13 6.6 °C 6 °C 998.6 hPa Calm   1.6 km/h 96% 1.5 mm 32 W/m2
10:18 6.6 °C 6 °C 998.3 hPa East 1.4 km/h 1.6 km/h 96% 1.5 mm 35 W/m2
10:23 6.6 °C 6 °C 998.3 hPa Calm   1.6 km/h 96% 1.5 mm 30 W/m2
10:28 6.6 °C 6 °C 998.3 hPa East 1.4 km/h 4.8 km/h 96% 1.5 mm 25 W/m2
10:33 6.6 °C 6 °C 998.3 hPa ENE 3.2 km/h 3.2 km/h 96% 1.5 mm 28 W/m2
10:38 6.6 °C 6 °C 998.3 hPa East 1.4 km/h 1.6 km/h 96% 1.8 mm 28 W/m2
10:43 6.6 °C 6 °C 998.3 hPa East 4.7 km/h 6.4 km/h 96% 1.5 mm 51 W/m2
10:48 6.7 °C 6.1 °C 998.0 hPa Calm   3.2 km/h 96% 1.5 mm 56 W/m2
10:53 6.7 °C 6.1 °C 998.0 hPa Calm     96% 1.5 mm 60 W/m2
10:58 6.8 °C 6.2 °C 998.0 hPa Calm   1.6 km/h 96% 1.5 mm 49 W/m2
11:03 6.8 °C 6.2 °C 998.0 hPa ENE 1.4 km/h 4.8 km/h 96% 1.5 mm 60 W/m2
11:08 6.8 °C 6.2 °C 998.0 hPa Calm   4.8 km/h 96% 1.5 mm 67 W/m2
11:13 6.9 °C 6.3 °C 997.6 hPa ENE 1.4 km/h 3.2 km/h 96% 1.5 mm 70 W/m2
11:18 6.9 °C 6.3 °C 997.6 hPa ENE 1.4 km/h 3.2 km/h 96% 1.5 mm 67 W/m2
11:23 7 °C 6.6 °C 997.6 hPa ESE 1.4 km/h 1.6 km/h 97% 1.5 mm 58 W/m2
11:28 7 °C 6.4 °C 997.6 hPa NE 3.2 km/h 6.4 km/h 96% 1.5 mm 69 W/m2
11:33 6.9 °C 6.3 °C 997.3 hPa Calm   1.6 km/h 96% 1.5 mm 54 W/m2
11:38 6.9 °C 6.3 °C 997.0 hPa Calm   6.4 km/h 96% 1.5 mm 70 W/m2
11:44 6.9 °C 6.3 °C 997.0 hPa Calm   4.8 km/h 96% 1.5 mm 77 W/m2
11:49 6.9 °C 6.3 °C 997.0 hPa ENE 1.4 km/h 3.2 km/h 96% 1.5 mm 62 W/m2
11:54 6.9 °C 6.3 °C 997.0 hPa ENE 1.4 km/h 6.4 km/h 96% 1.5 mm 67 W/m2
11:59 6.9 °C 6.3 °C 996.6 hPa NE 3.2 km/h 6.4 km/h 96% 1.5 mm 93 W/m2
12:04 6.9 °C 6.3 °C 996.6 hPa ESE 3.2 km/h 8 km/h 96% 1.5 mm 83 W/m2
12:09 6.9 °C 6.5 °C 996.6 hPa East 3.2 km/h 6.4 km/h 97% 1.5 mm 81 W/m2
12:14 6.9 °C 6.3 °C 996.6 hPa ENE 1.4 km/h 4.8 km/h 96% 1.5 mm 86 W/m2
12:19 6.9 °C 6.3 °C 996.3 hPa ESE 1.4 km/h 6.4 km/h 96% 1.5 mm 79 W/m2
12:24 6.9 °C 6.3 °C 996.3 hPa ESE 4.7 km/h 4.8 km/h 96% 1.5 mm 63 W/m2
12:29 7 °C 6.4 °C 996.3 hPa East 1.4 km/h 1.6 km/h 96% 1.3 mm 56 W/m2
12:34 7 °C 6.4 °C 995.9 hPa ESE 4.7 km/h 4.8 km/h 96% 1.0 mm 65 W/m2
12:39 6.9 °C 6.3 °C 995.9 hPa ESE 3.2 km/h 4.8 km/h 96% 1.3 mm 53 W/m2
12:44 6.9 °C 6.3 °C 995.9 hPa ESE 3.2 km/h 3.2 km/h 96% 1.0 mm 53 W/m2
12:49 6.9 °C 6.3 °C 995.9 hPa East 3.2 km/h 9.7 km/h 96% 1.0 mm 46 W/m2
12:54 6.8 °C 6.2 °C 995.9 hPa East 3.2 km/h 4.8 km/h 96% 1.0 mm 47 W/m2
12:59 6.8 °C 6.2 °C 995.9 hPa SE 3.2 km/h 3.2 km/h 96% 1.0 mm 40 W/m2
13:04 6.8 °C 6.2 °C 995.6 hPa Calm   4.8 km/h 96% 1.0 mm 42 W/m2
13:09 6.8 °C 6.2 °C 995.6 hPa ESE 3.2 km/h 3.2 km/h 96% 1.3 mm 35 W/m2
13:14 6.8 °C 6.2 °C 995.6 hPa Calm   4.8 km/h 96% 1.0 mm 30 W/m2
13:19 6.8 °C 6.2 °C 995.6 hPa ESE 4.7 km/h 4.8 km/h 96% 1.0 mm 40 W/m2
13:24 6.8 °C 6.2 °C 995.6 hPa ESE 3.2 km/h 6.4 km/h 96% 1.0 mm 47 W/m2
13:29 6.8 °C 6.2 °C 995.3 hPa ENE 4.7 km/h 6.4 km/h 96% 1.0 mm 47 W/m2
13:34 6.8 °C 6.2 °C 995.3 hPa SE 1.4 km/h 8 km/h 96% 1.0 mm 40 W/m2
13:39 6.8 °C 6.2 °C 995.3 hPa Calm     96% 1.0 mm 23 W/m2
13:44 6.8 °C 6.2 °C 995.3 hPa Calm   4.8 km/h 96% 1.0 mm 25 W/m2
13:49 6.7 °C 6.1 °C 995.3 hPa East 3.2 km/h 11.3 km/h 96% 1.0 mm 28 W/m2
13:54 6.7 °C 6.1 °C 995.3 hPa ENE 3.2 km/h 6.4 km/h 96% 1.0 mm 35 W/m2
13:59 6.7 °C 6.1 °C 995.3 hPa Calm   9.7 km/h 96% 1.3 mm 39 W/m2
14:04 6.7 °C 6.1 °C 995.3 hPa East 1.4 km/h 4.8 km/h 96% 1.0 mm 30 W/m2
14:09 6.7 °C 6.1 °C 994.9 hPa East 1.4 km/h 3.2 km/h 96% 1.0 mm 30 W/m2
14:14 6.6 °C 6 °C 994.9 hPa East 1.4 km/h 4.8 km/h 96% 1.0 mm 35 W/m2
14:19 6.6 °C 6 °C 994.9 hPa East 6.4 km/h 6.4 km/h 96% 1.0 mm 32 W/m2
14:24 6.6 °C 6 °C 994.9 hPa Calm   4.8 km/h 96% 0.8 mm 30 W/m2
14:29 6.6 °C 6 °C 994.9 hPa ESE 4.7 km/h 6.4 km/h 96% 1.0 mm 25 W/m2
14:34 6.6 °C 6.2 °C 994.6 hPa Calm   3.2 km/h 97% 0.8 mm 37 W/m2
14:39 6.7 °C 6.3 °C 994.6 hPa Calm   3.2 km/h 97% 0.8 mm 35 W/m2
14:44 6.7 °C 6.1 °C 994.6 hPa Calm   3.2 km/h 96% 1.0 mm 26 W/m2
14:49 6.7 °C 6.1 °C 994.6 hPa Calm   1.6 km/h 96% 1.0 mm 23 W/m2
14:54 6.7 °C 6.1 °C 994.6 hPa East 4.7 km/h 4.8 km/h 96% 1.0 mm 28 W/m2
14:59 6.7 °C 6.1 °C 994.6 hPa East 1.4 km/h 3.2 km/h 96% 0.8 mm 33 W/m2
15:04 6.7 °C 6.1 °C 994.6 hPa East 3.2 km/h 3.2 km/h 96% 1.0 mm 30 W/m2
15:09 6.7 °C 6.1 °C 994.6 hPa ENE 1.4 km/h 3.2 km/h 96% 1.0 mm 26 W/m2
15:14 6.7 °C 6.3 °C 994.2 hPa ENE 3.2 km/h 3.2 km/h 97% 1.0 mm 25 W/m2
15:19 6.7 °C 6.3 °C 994.2 hPa ENE 3.2 km/h 4.8 km/h 97% 1.3 mm 23 W/m2
15:24 6.7 °C 6.3 °C 994.2 hPa ENE 3.2 km/h 3.2 km/h 97% 1.3 mm 19 W/m2
15:29 6.7 °C 6.3 °C 994.2 hPa Calm   4.8 km/h 97% 1.3 mm 16 W/m2
15:34 6.7 °C 6.3 °C 994.2 hPa Calm   4.8 km/h 97% 1.3 mm 19 W/m2
15:39 6.6 °C 6.2 °C 994.2 hPa NE 3.2 km/h 3.2 km/h 97% 1.5 mm 19 W/m2
15:44 6.6 °C 6.2 °C 994.2 hPa Calm   3.2 km/h 97% 1.3 mm 14 W/m2
15:49 6.6 °C 6.2 °C 994.2 hPa East 1.4 km/h 4.8 km/h 97% 1.5 mm 12 W/m2
15:54 6.6 °C 6.2 °C 994.2 hPa ENE 1.4 km/h 3.2 km/h 97% 1.3 mm 12 W/m2
15:59 6.6 °C 6.2 °C 994.2 hPa East 3.2 km/h 4.8 km/h 97% 1.5 mm 12 W/m2
16:04 6.6 °C 6.2 °C 994.2 hPa East 1.4 km/h 6.4 km/h 97% 1.3 mm 14 W/m2
16:09 6.6 °C 6.2 °C 994.2 hPa East 1.4 km/h 3.2 km/h 97% 1.3 mm 12 W/m2
16:14 6.6 °C 6.2 °C 993.9 hPa ENE 3.2 km/h 6.4 km/h 97% 1.5 mm 14 W/m2
16:20 6.6 °C 6.2 °C 993.9 hPa Calm   3.2 km/h 97% 1.3 mm 12 W/m2
16:25 6.6 °C 6.2 °C 993.9 hPa East 1.4 km/h 6.4 km/h 97% 1.5 mm 9 W/m2
16:30 6.6 °C 6.2 °C 993.9 hPa East 1.4 km/h 1.6 km/h 97% 1.5 mm 7 W/m2
16:35 6.6 °C 6.2 °C 993.9 hPa Calm   1.6 km/h 97% 1.5 mm 11 W/m2
16:40 6.6 °C 6.2 °C 993.9 hPa Calm   4.8 km/h 97% 1.5 mm 9 W/m2
16:45 6.6 °C 6.2 °C 994.2 hPa ESE 1.4 km/h 3.2 km/h 97% 1.5 mm 5 W/m2
16:50 6.6 °C 6.2 °C 994.2 hPa ESE 1.4 km/h 3.2 km/h 97% 1.5 mm 7 W/m2
16:55 6.6 °C 6.2 °C 994.2 hPa Calm   3.2 km/h 97% 1.5 mm 5 W/m2
17:00 6.6 °C 6.2 °C 993.9 hPa ESE 1.4 km/h 4.8 km/h 97% 1.3 mm 5 W/m2
17:05 6.6 °C 6.2 °C 994.2 hPa Calm   1.6 km/h 97% 1.5 mm 5 W/m2
17:10 6.6 °C 6.2 °C 994.2 hPa NE 1.4 km/h 4.8 km/h 97% 1.3 mm 0 W/m2
17:15 6.6 °C 6.2 °C 993.9 hPa Calm   6.4 km/h 97% 1.3 mm 0 W/m2
17:20 6.6 °C 6.2 °C 994.2 hPa Calm   1.6 km/h 97% 1.3 mm 0 W/m2
17:25 6.6 °C 6.2 °C 994.2 hPa NE 1.4 km/h 6.4 km/h 97% 1.0 mm 0 W/m2
17:30 6.6 °C 6.2 °C 994.2 hPa Calm   3.2 km/h 97% 1.0 mm 0 W/m2
17:35 6.5 °C 6.1 °C 994.2 hPa Calm     97% 1.0 mm 0 W/m2
17:40 6.5 °C 6.1 °C 994.2 hPa East 1.4 km/h 3.2 km/h 97% 0.8 mm 0 W/m2
17:45 6.5 °C 6.1 °C 994.2 hPa NE 4.7 km/h 4.8 km/h 97% 0.8 mm 0 W/m2
17:50 6.5 °C 6.1 °C 994.2 hPa Calm     97% 0.5 mm 0 W/m2
17:55 6.5 °C 6.1 °C 994.2 hPa NE 1.4 km/h 4.8 km/h 97% 0.8 mm 0 W/m2
18:00 6.4 °C 6 °C 994.2 hPa ENE 3.2 km/h 6.4 km/h 97% 0.8 mm 0 W/m2
18:05 6.4 °C 6 °C 994.2 hPa ESE 3.2 km/h 4.8 km/h 97% 0.5 mm 0 W/m2
18:10 6.4 °C 6 °C 994.6 hPa Calm   6.4 km/h 97% 0.5 mm 0 W/m2
18:15 6.4 °C 6 °C 994.6 hPa Calm   1.6 km/h 97% 0.5 mm 0 W/m2
Juneau County Weather
Compliments of Weather Underground - 2 mb